Regional Weather Roundup
Issued by NWS Northern Indiana

Home | Current Version | Previous Version | Text Only | Print | Product List | Glossary Off
Versions: 1 2 3 4 5 6 7 8 9 10 11 12 13 14 15 16 17 18 19 20 21 22 23 24 25 26 27 28 29 30 31 32 33 34 35 36 37 38 39 40 41 42 43 44 45 46 47 48 49 50

000
ASUS43 KIWX 250800
RWRIWX

KIWX WEATHER ROUNDUP
NATIONAL WEATHER SERVICE NORTHERN INDIANA
400 AM EDT FRI MAY 25 2018

NOTE: "FAIR" INDICATES FEW OR NO CLOUDS BELOW 12,000 FEET WITH NO
SIGNIFICANT WEATHER AND/OR OBSTRUCTIONS TO VISIBILITY.

* THESE STATIONS ARE NOT UNDER NWS QUALITY CONTROL. THEY ALSO MAY NOT
  REPORT WEATHER SUCH AS PRECIPITATION OR FOG.

INZ001>027-250900-
NORTHERN INDIANA

CITY           SKY/WX    TMP DP  RH WIND       PRES   REMARKS
KNOX*          FAIR      61  52  72 CALM      30.02S
SOUTH BEND     FAIR      60  51  72 CALM      30.03F
GOSHEN         FAIR      58  54  86 S3        30.03F
WARSAW*        FAIR      54  52  94 CALM      30.04F
AUBURN*        FAIR      54  50  87 CALM      30.06S
FORT WAYNE     FAIR      58  52  80 CALM      30.05F
PERU/GRISSOM   FAIR      60  53  76 CALM      30.03F

$$
INZ028>050-250900-
CENTRAL INDIANA

CITY           SKY/WX    TMP DP  RH WIND       PRES   REMARKS
LAFAYETTE      FAIR      55  53  93 CALM      30.03S
KOKOMO*        FAIR      60  52  74 S5        30.05F
MUNCIE*        FAIR      59  53  80 CALM      30.05F
INDIANAPOLIS   FAIR      67  54  63 CALM      30.04F

$$
MIZ043>046-050>051-056>058-064>065-071>073-077>080-250900-
SOUTHWEST LOWER MICHIGAN

CITY           SKY/WX    TMP DP  RH WIND       PRES   REMARKS
BATTLE CREEK   FAIR      61  50  67 CALM      30.04S
BENTON HARBOR  FAIR      62  50  64 SE5       30.01S
COLDWATER*     FAIR      62  48  58 CALM      30.04S
HILLSDALE*     FAIR      59  48  67 S3        30.05F
HOLLAND        FAIR      62  52  69 S6        30.01S
GRAND RAPIDS   FAIR      60  52  74 S6        30.01F
KALAMAZOO      FAIR      63  51  65 S3        30.03F
STURGIS*       FAIR      61  51  70 CALM      30.03F
THREE RIVERS*  FAIR      56  53  88 CALM      30.04S

$$
OHZ001>008-015>018-024>025-250900-
NORTHWEST OHIO

CITY           SKY/WX    TMP DP  RH WIND       PRES   REMARKS
DEFIANCE       FAIR      55  52  89 CALM      30.05F
FINDLAY        FAIR      60  53  77 CALM      30.05F
TOLEDO EXPRESS FAIR      56  55  97 CALM      30.04F
TOLEDO METCALF FAIR      61  49  64 SE3       30.05F
LIMA           FAIR      59  51  75 S6        30.06F

$$
AND FOR LAKE MICHIGAN COASTAL AND OPEN LAKE BUOY OBSERVATIONS

STATION/POSITION TEMP    WIND        PRES    VSBY  WAVE
                 AIR SEA DIR/SP/G                  HT/PER
                 (F)     (DEG/KT/KT) (MB)    (MI)  (FT/S)
CALUMET HARBOR    69     180/  5/  7 1015.6F
MICHIGAN CITY     71     160/ 10/ 12   N/A
BURNS HARBOR      69     190/  9/ 11 1016.6F
SAINT JOSEPH      69     150/  3/  6 1016.9
SOUTH LAKE BUOY   51 39  170/ 10/ 10 1016.1          0
4 MI NW BRIDGMAN  62 57  190/  4/  6 1016.2F         0
MICHIGAN CITY     63 60  200/  6/  6   N/A           0

$$
&&



USA.gov is the U.S. government's official web portal to all federal, state and local government web resources and services.